[[{"header":{"parameterUnit":"m.s-1","parameterCategory":1,"la1":30.2991,"la2":30.254,"lo1":-89.0895,"lo2":-89.0444,"dy":0.0017,"dx":0.0017,"nx":28,"ny":28,"refTime":"2024-09-29T03:00:00:Z","depth":0,"parameterNumber":2,"parameterNumberName":"U-component_of_WINDS"},"data":[0,0,0,0,0,0,0,0,0,0,0,0,0,0,0,0,0,0,0,0,0,0,0,0,0,0,0,0,0,0,0,0,0,0,0,0,0,0,0,0,0,0,0,0,0,0,0,0,0,0,0,0,0,0,0,0,0,0,0.0019,0.0019,0,0.0001,0.0001,0.0001,0.0012,0.0013,0.0013,0.0014,-0.0006,-0.0007,-0.0008,0,0,0,0,0,0,0,0,0,0,0,0,0,0.0063,0.0062,0.0019,0.0019,0.0019,0.0001,0.0001,0.0001,0.0012,0.0013,0.0013,0.0014,-0.0006,-0.0007,-0.0008,0,0,0,0,0,0,0,0,0,0,0,0,0,0.0044,0.0062,0.0019,0.0022,0.0023,0.0001,0.0001,0.0001,0.0012,0.0013,0.0013,0.0014,-0.0005,-0.0007,-0.0009,-0.0034,0,0,-0.0013,-0.0014,0,0,0,0,0,0,0,0,0.0046,0.0043,0.0022,0.0022,0.0022,0.001,0.0009,-0.0011,0.0012,0.0016,0.0014,0.0015,-0.0002,-0.0003,-0.0009,-0.0035,-0.0036,-0.0013,-0.0014,-0.0015,-0.0015,0,0,0,0,0,0,0,0.0047,0.0044,0.0012,0.0022,0.0022,0.0024,0.0023,0.0005,0.0003,0.0016,0.0016,0.0014,-0.0002,-0.0007,-0.0009,-0.0036,-0.0013,-0.0015,-0.0016,-0.0016,-0.0085,-0.0086,0,0,0,0,0,0,0.0048,0.0045,0.0013,0.0012,0.0036,0.0023,0.0021,0.0013,0.0003,0.0002,0.0013,0.0015,-0.0005,-0.0007,-0.001,-0.0041,-0.0015,-0.0016,-0.0017,-0.0084,-0.0085,-0.0086,0,0,0,0,0,0,0.0049,0.0045,0.0013,0.0028,0.0025,0.0021,0.0012,0.0012,0.0006,0.0001,0.0001,0.0008,-0.0004,-0.0008,-0.0028,-0.0041,-0.0017,-0.0018,-0.0083,-0.0085,-0.0086,-0.0103,0,0,0,0,0,0,0.005,0.0045,0.0036,0.0028,0.0024,-0.0004,0.0011,0.0011,0.0004,0.0005,-0.0004,-0.0005,-0.0004,-0.0026,-0.003,-0.0043,-0.002,-0.0082,-0.0084,-0.0085,-0.0101,-0.0105,-0.0107,0,0,0,0,0,0.0052,0.0032,0.0035,0.0031,0.0012,-0.0005,-0.0008,-0.0006,0.0003,-0.0007,-0.001,-0.0004,-0.0039,-0.0028,-0.0032,-0.0046,-0.0081,-0.0083,-0.0085,-0.01,-0.0104,-0.0107,0,0,0,0,0,0,0.0038,0.0031,0.0035,0.0012,0.0004,-0.0003,-0.0016,-0.0011,-0.0022,-0.002,-0.0018,-0.0021,-0.0042,-0.0046,-0.0034,-0.0072,-0.0059,-0.0062,-0.0068,-0.0072,-0.0076,-0.0074,-0.0021,0,0,0,0,0,0.0032,0.0019,0.0014,-0.0006,-0.001,-0.0012,-0.002,-0.0018,-0.0026,-0.003,-0.0034,-0.0043,-0.0056,-0.0064,-0.0076,-0.0102,-0.0104,-0.0113,-0.0116,-0.0119,-0.0122,-0.0136,-0.014,-0.0093,-0.0093,-0.0093,0,0,0.002,0.0014,0.0006,-0.0009,-0.0015,-0.0029,-0.0015,-0.003,-0.004,-0.0032,-0.0052,-0.0056,-0.0065,-0.0088,-0.0098,-0.0092,-0.0135,-0.0122,-0.0124,-0.0125,-0.0138,-0.0143,-0.0147,-0.0094,-0.0094,-0.0094,0,0,-0.0009,-0.0014,-0.0032,-0.0038,-0.0047,-0.0048,-0.0052,-0.006,-0.0062,-0.0082,-0.0076,-0.0088,-0.011,-0.0117,-0.0124,-0.0156,-0.0151,-0.016,-0.0177,-0.019,-0.0194,-0.0197,-0.0209,-0.0213,-0.0162,-0.0162,-0.0162,0,-0.0023,-0.0043,-0.0041,-0.0057,-0.0064,-0.0056,-0.0074,-0.008,-0.0093,-0.0098,-0.0091,-0.0119,-0.0124,-0.0149,-0.0157,-0.0162,-0.0168,-0.0159,-0.0193,-0.0197,-0.02,-0.0211,-0.0215,-0.0163,-0.0163,-0.0163,-0.0163,0,-0.006,-0.0074,-0.0087,-0.0099,-0.0108,-0.0124,-0.0125,-0.0134,-0.0132,-0.0134,-0.0154,-0.0161,-0.0175,-0.018,-0.0178,-0.0205,-0.0201,-0.0194,-0.018,-0.0205,-0.0216,-0.022,-0.0165,-0.0165,-0.0164,-0.0164,0,0,-0.0098,-0.0109,-0.0114,-0.012,-0.0129,-0.014,-0.0156,-0.0169,-0.0177,-0.0186,-0.02,-0.0219,-0.0213,-0.022,-0.0219,-0.0231,-0.0256,-0.0222,-0.0222,-0.0228,-0.0286,-0.0292,-0.0297,-0.0253,-0.0253,-0.0254,-0.0286,0,-0.0128,-0.0156,-0.0155,-0.0182,-0.0195,-0.0188,-0.0202,-0.021,-0.0213,-0.0224,-0.0227,-0.0241,-0.0231,-0.0235,-0.0247,-0.0251,-0.0268,-0.0248,-0.0266,-0.0267,-0.0264,-0.0302,-0.0308,-0.0337,-0.029,-0.029,-0.0291,0,-0.0166,-0.0177,-0.0204,-0.0212,-0.0218,-0.023,-0.0242,-0.0254,-0.0262,-0.0263,-0.0272,-0.0269,-0.0286,-0.0272,-0.0296,-0.0283,-0.029,-0.0293,-0.0294,-0.0296,-0.028,-0.0305,-0.0347,-0.0351,-0.0297,-0.0297,-0.0296,0,-0.0192,-0.0213,-0.0232,-0.0237,-0.0246,-0.0255,-0.026,-0.0268,-0.0276,-0.0286,-0.0291,-0.0304,-0.0311,-0.0321,-0.0321,-0.0311,-0.0345,-0.0332,-0.0347,-0.0347,-0.0355,-0.0354,-0.0398,-0.0359,-0.0359,-0.0359,-0.0359,0,-0.0225,-0.0243,-0.0243,-0.0255,-0.0275,-0.0273,-0.0293,-0.0296,-0.0303,-0.0316,-0.0311,-0.0324,-0.0323,-0.0336,-0.0337,-0.0356,-0.0359,-0.0361,-0.0361,-0.0362,-0.0361,-0.0366,-0.0364,-0.036,-0.036,-0.036,-0.0359,0,-0.0257,-0.0258,-0.0279,-0.0286,-0.0288,-0.0302,-0.0309,-0.032,-0.0322,-0.0339,-0.0342,-0.0346,-0.036,-0.0362,-0.0379,-0.0379,-0.0403,-0.0401,-0.04,-0.04,-0.0415,-0.0414,-0.0464,-0.0471,-0.0427,-0.0428,-0.0428,0,-0.0278,-0.0292,-0.03,-0.0308,-0.0313,-0.0326,-0.0334,-0.0333,-0.0342,-0.0353,-0.0364,-0.0378,-0.0389,-0.0412,-0.0417,-0.043,-0.0428,-0.0445,-0.043,-0.043,-0.0429,-0.0428,-0.0429,-0.0448,-0.0448,-0.0448,-0.0449,0,-0.0316,-0.0316,-0.0328,-0.034,-0.0349,-0.0359,-0.0367,-0.0374,-0.0375,-0.0385,-0.04,-0.0408,-0.0426,-0.044,-0.0453,-0.0458,-0.0454,-0.0453,-0.0458,-0.0458,-0.0457,-0.0458,-0.0408,-0.0452,-0.0452,-0.0452,-0.0451,-0.0451,-0.0343,-0.0355,-0.0363,-0.0376,-0.0382,-0.0391,-0.0402,-0.0406,-0.0418,-0.0432,-0.043,-0.0447,-0.0456,-0.0472,-0.0478,-0.0492,-0.0486,-0.0492,-0.0494,-0.0495,-0.0497,-0.0455,-0.0494,-0.0494,-0.0494,-0.0494,-0.0494,0,-0.0381,-0.0386,-0.0398,-0.041,-0.0421,-0.0416,-0.0425,-0.0434,-0.0449,-0.0457,-0.0468,-0.0485,-0.0499,-0.0504,-0.0518,-0.0527,-0.0526,-0.0531,-0.0531,-0.0532,-0.0501,-0.0496,-0.0532,-0.0532,-0.0532,-0.0532,-0.0532,-0.0532,-0.0402,-0.0421,-0.0422,-0.0445,-0.0449,-0.0465,-0.0471,-0.0479,-0.0486,-0.0505,-0.0516,-0.0519,-0.0527,-0.0541,-0.0553,-0.0555,-0.056,-0.0566,-0.0567,-0.0538,-0.0534,-0.053,-0.0526,-0.0567,-0.0567,-0.0596,-0.0597,-0.0597]},{"header":{"parameterUnit":"m.s-1","parameterCategory":1,"la1":30.2991,"la2":30.254,"lo1":-89.0895,"lo2":-89.0444,"dy":0.0017,"dx":0.0017,"nx":28,"ny":28,"refTime":"2024-09-29T03:00:00:Z","depth":0,"parameterNumber":3,"parameterNumberName":"V-component_of_WINDS"},"data":[0,0,0,0,0,0,0,0,0,0,0,0,0,0,0,0,0,0,0,0,0,0,0,0,0,0,0,0,0,0,0,0,0,0,0,0,0,0,0,0,0,0,0,0,0,0,0,0,0,0,0,0,0,0,0,0,0,0,-0.1533,-0.1534,0,-0.1595,-0.1596,-0.1596,-0.1614,-0.1613,-0.1613,-0.1613,-0.1677,-0.1679,-0.1681,0,0,0,0,0,0,0,0,0,0,0,0,0,-0.143,-0.1432,-0.1533,-0.1534,-0.1534,-0.1595,-0.1596,-0.1597,-0.1614,-0.1613,-0.1613,-0.1613,-0.1677,-0.1679,-0.1681,0,0,0,0,0,0,0,0,0,0,0,0,0,-0.1482,-0.1433,-0.1533,-0.155,-0.1553,-0.1595,-0.1596,-0.1597,-0.1614,-0.1613,-0.1613,-0.1612,-0.1676,-0.1679,-0.1682,-0.1711,0,0,-0.1691,-0.1693,0,0,0,0,0,0,0,0,-0.1479,-0.1486,-0.1547,-0.1549,-0.1552,-0.1596,-0.1583,-0.1635,-0.1614,-0.1591,-0.1613,-0.1612,-0.1651,-0.1656,-0.1669,-0.1714,-0.1717,-0.1691,-0.1693,-0.1695,-0.1696,0,0,0,0,0,0,0,-0.1475,-0.1483,-0.1557,-0.1548,-0.1551,-0.1555,-0.1562,-0.1593,-0.1623,-0.1593,-0.1594,-0.1601,-0.1652,-0.1666,-0.167,-0.1718,-0.1691,-0.1694,-0.1696,-0.1697,-0.1791,-0.1792,0,0,0,0,0,0,-0.1469,-0.148,-0.1556,-0.1559,-0.1513,-0.1558,-0.1565,-0.1582,-0.1623,-0.1628,-0.1602,-0.1602,-0.1661,-0.1667,-0.1673,-0.171,-0.1695,-0.1697,-0.1699,-0.1791,-0.1792,-0.1792,0,0,0,0,0,0,-0.1466,-0.1475,-0.1553,-0.152,-0.153,-0.156,-0.1579,-0.1584,-0.1598,-0.1629,-0.1635,-0.161,-0.1661,-0.1668,-0.1702,-0.1713,-0.1699,-0.1702,-0.179,-0.1791,-0.1792,-0.1785,0,0,0,0,0,0,-0.1463,-0.1474,-0.1485,-0.152,-0.1532,-0.1581,-0.158,-0.1586,-0.1603,-0.1604,-0.1639,-0.1644,-0.1661,-0.1697,-0.1705,-0.1717,-0.1704,-0.1789,-0.1791,-0.1792,-0.1785,-0.1786,-0.1787,0,0,0,0,0,-0.146,-0.1481,-0.1486,-0.1495,-0.1547,-0.1581,-0.1588,-0.1606,-0.1604,-0.1615,-0.1636,-0.1643,-0.171,-0.17,-0.1709,-0.1722,-0.1789,-0.179,-0.1792,-0.1784,-0.1786,-0.1787,0,0,0,0,0,0,-0.1447,-0.1486,-0.1492,-0.1525,-0.155,-0.1584,-0.1599,-0.1607,-0.1634,-0.1633,-0.1655,-0.1663,-0.1695,-0.1712,-0.17,-0.1753,-0.175,-0.1753,-0.1741,-0.1743,-0.1744,-0.1739,-0.1707,0,0,0,0,0,-0.1448,-0.1473,-0.1506,-0.1532,-0.1544,-0.1569,-0.1585,-0.1597,-0.1624,-0.1634,-0.1657,-0.1683,-0.171,-0.1727,-0.1754,-0.1787,-0.1795,-0.1801,-0.1802,-0.1802,-0.1805,-0.1825,-0.1828,-0.1797,-0.1797,-0.1797,0,0,-0.1451,-0.1475,-0.149,-0.153,-0.1551,-0.1576,-0.1578,-0.1605,-0.1624,-0.1638,-0.1671,-0.1689,-0.1719,-0.1753,-0.1769,-0.1768,-0.1815,-0.1804,-0.1805,-0.1807,-0.1827,-0.183,-0.1832,-0.1798,-0.1798,-0.1798,0,0,-0.1469,-0.149,-0.1514,-0.1534,-0.1565,-0.1582,-0.1588,-0.1621,-0.1633,-0.1667,-0.1678,-0.1701,-0.1747,-0.1768,-0.1785,-0.1811,-0.1819,-0.1819,-0.1826,-0.1844,-0.1847,-0.1849,-0.1859,-0.1862,-0.1822,-0.1822,-0.1822,0,-0.1469,-0.1507,-0.1526,-0.1552,-0.157,-0.1584,-0.1609,-0.1628,-0.1666,-0.1678,-0.1676,-0.1734,-0.1756,-0.1795,-0.1801,-0.1814,-0.1822,-0.1816,-0.1845,-0.1847,-0.185,-0.1859,-0.1863,-0.1822,-0.1822,-0.1822,-0.1822,0,-0.1505,-0.1532,-0.1548,-0.1584,-0.1603,-0.1629,-0.1652,-0.1669,-0.168,-0.1697,-0.1731,-0.1757,-0.1789,-0.1799,-0.1809,-0.184,-0.1838,-0.184,-0.1837,-0.1852,-0.1862,-0.1865,-0.1821,-0.1821,-0.1822,-0.1822,0,0,-0.1517,-0.1564,-0.1569,-0.1586,-0.1621,-0.1642,-0.1668,-0.17,-0.1714,-0.174,-0.1763,-0.1802,-0.1804,-0.1823,-0.1836,-0.1852,-0.1872,-0.1853,-0.1854,-0.1856,-0.1908,-0.1906,-0.191,-0.1877,-0.1878,-0.1878,-0.1905,0,-0.154,-0.1587,-0.1605,-0.1644,-0.1669,-0.1683,-0.1706,-0.173,-0.1747,-0.177,-0.1789,-0.1816,-0.1817,-0.1829,-0.1845,-0.1866,-0.1883,-0.1864,-0.1899,-0.19,-0.1892,-0.1915,-0.1913,-0.1937,-0.1909,-0.191,-0.191,0,-0.1573,-0.1599,-0.164,-0.1673,-0.1684,-0.1704,-0.1734,-0.1757,-0.1785,-0.1796,-0.1817,-0.1829,-0.1857,-0.1852,-0.1892,-0.1879,-0.1895,-0.1907,-0.1908,-0.1913,-0.1906,-0.192,-0.1945,-0.1949,-0.1916,-0.1915,-0.1915,0,-0.1579,-0.1624,-0.1654,-0.1668,-0.1706,-0.172,-0.1737,-0.1765,-0.1782,-0.1809,-0.1821,-0.185,-0.1867,-0.1889,-0.1909,-0.1904,-0.1948,-0.1944,-0.1958,-0.1958,-0.1967,-0.1966,-0.1995,-0.1976,-0.1976,-0.1976,-0.1976,0,-0.1602,-0.1627,-0.1657,-0.1676,-0.1705,-0.1725,-0.1752,-0.177,-0.1794,-0.1817,-0.1831,-0.1852,-0.1877,-0.1901,-0.1917,-0.1948,-0.1955,-0.1965,-0.1969,-0.1965,-0.1963,-0.1975,-0.1974,-0.1977,-0.1977,-0.1977,-0.1976,0,-0.1613,-0.1634,-0.1669,-0.1702,-0.1711,-0.1731,-0.176,-0.1779,-0.1796,-0.1825,-0.1833,-0.186,-0.189,-0.1912,-0.195,-0.1961,-0.1994,-0.1998,-0.1984,-0.1987,-0.2,-0.1998,-0.2038,-0.2044,-0.202,-0.202,-0.202,0,-0.1627,-0.1647,-0.1682,-0.1698,-0.1715,-0.1741,-0.1759,-0.178,-0.1798,-0.1832,-0.1847,-0.1877,-0.1903,-0.195,-0.1973,-0.2003,-0.2008,-0.202,-0.2013,-0.2007,-0.2009,-0.2008,-0.201,-0.2021,-0.2021,-0.2021,-0.2021,0,-0.165,-0.166,-0.1685,-0.1715,-0.1736,-0.176,-0.1784,-0.1797,-0.1822,-0.1842,-0.1873,-0.1892,-0.1932,-0.1962,-0.1994,-0.2012,-0.2021,-0.2023,-0.2028,-0.2024,-0.2015,-0.2021,-0.1988,-0.2022,-0.2022,-0.2022,-0.2022,-0.2022,-0.1664,-0.1682,-0.171,-0.1738,-0.1758,-0.1781,-0.18,-0.182,-0.1846,-0.1879,-0.189,-0.1921,-0.1949,-0.1993,-0.2011,-0.2036,-0.2036,-0.2043,-0.2045,-0.2047,-0.2047,-0.2011,-0.2042,-0.2042,-0.2042,-0.2042,-0.2042,0,-0.1688,-0.1706,-0.1732,-0.1766,-0.1788,-0.1794,-0.1821,-0.184,-0.1867,-0.1892,-0.1917,-0.1952,-0.1982,-0.2008,-0.2039,-0.2054,-0.2059,-0.2061,-0.2061,-0.2065,-0.2045,-0.2038,-0.2057,-0.2057,-0.2057,-0.2057,-0.2057,-0.2057,-0.1703,-0.1734,-0.1747,-0.1788,-0.1807,-0.1838,-0.1853,-0.1874,-0.1894,-0.1932,-0.1957,-0.1973,-0.1999,-0.2032,-0.206,-0.2067,-0.2078,-0.2079,-0.2087,-0.2068,-0.2066,-0.2065,-0.2058,-0.2081,-0.2081,-0.2105,-0.2105,-0.2105]}]]